Vorticity
nan nan nan nan nan nan nan nan nan nan nan nan nan nan nan nan nan nan nan nan nan nan
nan 8 8 8 7 8 8 8 11 9 8 8 8 8 9 9 9 10 13 10 7 nan
nan 8 8 9 9 9 7 7 8 10 9 8 7 9 9 9 7 8 6 13 15 nan
nan 8 8 7 8 9 9 9 7 8 8 7 8 9 9 8 8 12 8 8 9 nan
nan 8 8 8 8 9 9 8 8 10 9 8 9 9 8 9 13 9 6 6 5 nan
nan 10 8 9 10 9 10 9 10 8 7 9 10 9 9 10 11 9 8 9 10 nan
nan 11 10 11 13 10 12 13 11 9 8 9 10 11 11 10 12 12 10 9 10 nan
nan 11 13 12 12 10 11 13 13 11 12 12 11 11 11 11 10 11 12 13 11 nan
nan 10 11 10 11 9 7 9 11 10 10 11 13 12 8 7 9 9 10 10 12 nan
nan 9 10 8 9 10 10 9 6 5 6 8 12 10 6 6 6 8 9 9 8 nan
nan 10 10 10 9 8 8 9 7 7 8 9 8 9 8 7 8 9 8 9 9 nan
nan 9 9 10 8 6 7 7 8 9 9 8 10 11 9 9 9 9 11 10 9 nan
nan 9 9 9 8 8 8 9 8 7 8 8 10 12 12 10 9 9 9 10 12 nan
nan nan nan nan nan nan nan nan nan nan nan nan nan nan nan nan nan nan nan nan nan nan
CAPE
2663 2979 3250 2990 2206 2211 2176 2299 2940 2551 2550 2732 2853 2965 2703 2524 2255 2214 2107 2012 1975 1927
2910 2877 2837 2568 2223 2361 2511 2423 2314 2817 2817 2860 3130 3317 3343 3277 2865 2611 2436 2261 1872 1835
3247 2978 2867 2931 3414 3037 2267 2630 3395 3213 3209 3242 3311 3608 3672 3429 3134 2644 1079 726 1741 1671
3004 3372 3261 3043 3025 3056 3027 2743 2907 3069 3129 3251 3038 3435 3701 3051 2773 1040 109 1 389 1686
2895 2935 3229 3111 2926 2879 2878 2695 2749 3415 2803 2473 2820 3543 3173 2750 2618 963 429 626 572 1411
2703 2790 2666 2945 2790 3008 2909 2754 2992 2959 2370 3018 3140 3401 3032 2768 2536 1507 945 1076 1382 1899
2409 2448 2015 1819 2014 1941 2152 2574 2852 2699 2701 3090 3301 2913 2811 2666 2469 1905 1390 1792 2009 2056
1891 1801 1880 2025 1865 2060 2512 2881 3189 3425 3244 3198 3125 3284 2296 1979 2008 2146 2348 2303 2242 2205
1561 1301 1846 2931 3552 3701 3617 3495 3386 2812 2836 2607 3071 1794 1383 1213 1033 952 1209 1563 1982 2112
1523 2275 3761 3770 3525 2513 1837 1387 1114 759 826 795 1284 1658 1506 882 573 438 380 623 857 1327
3378 4149 3370 2519 1997 1310 789 680 651 551 494 530 687 769 1024 780 88 2 23 7 13 48
4057 3071 2733 1684 906 756 613 598 517 480 678 334 300 371 374 360 5 0 0 0 0 0
3196 2809 1984 1187 852 802 791 875 1064 612 512 575 553 465 349 89 0 0 0 0 0 0
2046 1507 901 901 1122 1155 1140 1192 1113 980 782 748 748 646 488 38 0 0 0 0 0 0